Vorticity
4 3 4 7 4 4 -10 -0 20 2 4 2 4 6 4 8 18 12 9 4 4 6 8 7 5 4 4 5 5 4 4 4 6 5 5 7 8 7 11 7 6 4 3
7 1 4 9 -5 14 -13 -11 24 15 6 5 8 4 3 15 17 8 4 4 7 7 6 4 4 3 3 4 5 5 4 4 5 5 5 3 5 4 7 9 9 7 6
-2 -2 -2 3 1 -6 1 1 39 14 3 7 9 5 4 15 10 3 2 5 5 4 4 5 5 5 5 4 6 5 5 5 4 3 5 5 3 4 3 4 6 8 9
2 37 5 -3 -2 -0 -6 -6 4 13 5 -1 11 7 11 14 4 0 4 4 3 4 5 6 6 6 7 5 6 4 4 4 5 3 2 1 2 5 7 5 4 2 2
-31 -3 10 28 11 7 2 2 14 -7 17 6 4 4 16 7 5 0 3 3 3 3 2 3 3 2 4 6 6 3 3 5 7 5 3 5 1 1 1 2 4 9 9
1 15 5 6 10 10 12 4 4 15 17 5 3 20 10 10 2 3 2 4 3 2 3 1 1 3 4 6 6 7 7 7 5 5 2 0 1 6 6 5 4 4 3
3 14 13 11 5 -4 6 -2 22 16 14 5 18 12 11 13 4 -1 2 2 2 2 5 4 1 1 3 5 7 6 6 4 8 6 10 6 5 1 4 4 -0 -0 2
-7 5 13 1 20 31 7 26 8 29 0 17 14 7 17 2 -0 4 1 2 4 5 1 -0 4 12 19 18 11 12 10 11 12 9 9 10 9 7 1 -3 -3 -5 -2
17 11 24 -35 72 -14 6 3 20 4 9 10 11 17 4 3 5 1 3 5 1 1 6 9 1 6 -1 10 18 4 9 5 2 4 7 8 4 7 5 3 1 4 4
3 10 1 9 60 -27 5 28 -3 20 20 31 50 8 -6 8 -0 5 -5 -1 6 9 4 4 8 13 2 4 1 -1 -4 -3 7 5 -2 -3 3 4 7 9 11 1 2
19 34 27 25 0 21 7 -2 23 18 9 -3 12 17 -0 1 3 -0 4 6 -1 7 4 -2 10 10 13 8 -5 4 7 4 5 3 4 2 2 6 5 5 8 4 14
30 20 29 8 -3 22 35 19 11 36 24 2 -4 -3 3 2 0 5 7 5 7 -8 8 8 4 -2 2 -1 -11 5 8 8 6 4 7 9 10 11 9 5 11 14 12
45 -47 -10 46 31 3 -5 51 34 5 7 8 10 3 -0 6 4 -0 -2 3 5 -2 18 3 1 10 18 11 6 14 11 9 9 6 6 6 8 9 11 10 11 12 13
4 1 -22 30 -8 40 28 -8 -1 3 -5 -3 6 7 3 2 6 3 3 -0 -0 20 3 8 14 13 8 10 7 6 6 8 11 10 11 11 10 10 9 7 7 7 10
-2 41 11 19 27 9 4 -1 2 3 5 4 2 3 3 4 3 3 10 6 13 14 13 5 3 4 4 4 5 5 5 6 7 8 7 6 9 10 9 8 5 4 3
47 49 9 3 3 5 5 5 5 3 1 6 4 5 -1 9 7 12 16 13 5 3 3 7 6 5 4 3 1 1 0 2 4 4 5 6 6 7 9 10 10 7 6
5 2 -2 3 1 -1 1 3 2 3 4 1 9 4 11 14 10 5 3 5 6 5 5 4 4 2 2 3 3 4 5 4 6 6 6 4 4 7 9 10 9 9 10
7 7 7 6 6 4 3 5 2 1 3 8 7 13 9 6 4 4 5 3 3 3 3 4 4 4 4 5 6 6 6 7 7 7 5 6 5 7 10 10 9 9 9
3 6 5 7 6 4 9 5 2 4 7 13 11 4 2 4 4 3 1 0 2 2 3 3 4 4 5 6 7 7 7 8 7 6 7 7 7 8 10 9 9 7 5
8 7 7 6 4 7 7 0 8 12 13 3 3 2 5 3 1 -1 1 2 4 4 4 5 6 6 6 6 7 8 7 7 7 8 7 7 9 13 12 8 6 5 4
8 6 2 5 8 8 6 7 15 4 2 2 3 3 1 -1 1 2 2 3 4 6 5 5 6 6 6 7 7 7 7 7 8 7 9 9 12 11 7 5 3 1 2
3 6 2 4 5 5 8 10 3 3 1 3 1 1 1 2 3 3 3 4 5 5 4 5 6 6 8 8 7 7 6 6 6 7 6 13 10 5 3 2 3 2 1
6 8 6 6 6 12 8 3 2 3 3 1 2 1 2 3 3 3 4 5 5 5 6 7 7 8 8 7 8 7 6 6 7 7 11 9 4 3 2 2 2 1 3
5 7 11 16 14 4 0 4 0 3 1 2 3 2 3 3 3 4 5 5 7 7 8 7 8 10 8 7 7 6 7 7 5 10 12 5 3 0 2 2 3 4 5
6 12 9 9 4 -1 2 1 0 1 2 2 2 3 4 4 5 6 9 10 3 5 6 8 9 7 7 5 5 8 7 7 15 9 4 2 1 2 3 2 3 3 4
11 6 6 3 3 1 1 2 3 2 2 3 5 4 5 6 7 9 4 6 9 7 7 9 7 6 4 5 8 5 7 11 2 1 1 2 5 2 7 3 5 4 6
Height
5838 5839 5840 5840 5839 5839 5839 5839 5838 5838 5838 5837 5837 5837 5838 5839 5838 5837 5838 5838 5837 5837 5836 5837 5838 5837 5836 5834 5832 5830 5829 5827 5825 5824 5822 5821 5820 5819 5817 5816 5817 5814 5813
5834 5835 5837 5837 5836 5836 5835 5834 5832 5831 5833 5833 5833 5833 5834 5835 5835 5837 5836 5838 5837 5836 5835 5836 5836 5835 5833 5831 5830 5829 5828 5826 5824 5822 5821 5821 5820 5818 5815 5815 5814 5812 5811
5831 5832 5832 5833 5832 5831 5831 5829 5828 5827 5829 5829 5829 5829 5831 5833 5834 5835 5836 5837 5836 5835 5834 5833 5833 5833 5832 5831 5829 5827 5825 5824 5822 5820 5820 5818 5818 5817 5815 5814 5811 5809 5809
5824 5825 5826 5826 5826 5826 5825 5825 5823 5825 5824 5825 5825 5827 5829 5831 5833 5835 5836 5836 5835 5834 5832 5831 5832 5831 5830 5828 5826 5824 5823 5822 5820 5818 5817 5816 5815 5814 5812 5812 5810 5808 5806
5819 5820 5820 5818 5820 5820 5821 5821 5820 5820 5821 5822 5823 5824 5826 5829 5833 5835 5835 5834 5833 5832 5831 5830 5831 5829 5829 5827 5824 5822 5821 5820 5818 5817 5815 5815 5813 5811 5809 5809 5806 5805 5805
5815 5815 5814 5812 5812 5813 5814 5815 5815 5816 5818 5818 5818 5821 5825 5829 5832 5833 5833 5833 5832 5831 5830 5828 5828 5827 5825 5824 5820 5819 5817 5817 5815 5814 5812 5810 5809 5808 5808 5806 5803 5801 5800
5810 5809 5807 5807 5806 5806 5807 5808 5809 5810 5813 5814 5815 5818 5823 5825 5828 5831 5830 5829 5829 5828 5827 5825 5822 5823 5821 5819 5817 5815 5814 5813 5811 5809 5808 5806 5805 5804 5803 5802 5799 5797 5795
5806 5805 5802 5803 5801 5800 5800 5803 5803 5806 5809 5809 5810 5816 5819 5822 5825 5827 5827 5828 5827 5826 5824 5820 5818 5816 5816 5813 5811 5810 5808 5806 5805 5804 5803 5801 5800 5799 5798 5796 5795 5793 5790
5802 5801 5794 5793 5796 5791 5797 5800 5801 5802 5802 5804 5809 5812 5815 5818 5821 5824 5825 5825 5823 5822 5821 5818 5815 5813 5809 5809 5806 5804 5802 5801 5799 5799 5797 5796 5794 5793 5791 5790 5788 5786 5784
5796 5796 5794 5796 5798 5792 5798 5796 5796 5798 5798 5801 5806 5812 5816 5818 5820 5822 5820 5820 5819 5818 5815 5813 5810 5807 5804 5804 5802 5800 5798 5795 5794 5791 5791 5790 5788 5786 5784 5781 5780 5779 5777
5791 5786 5784 5791 5790 5791 5789 5790 5792 5794 5796 5801 5808 5813 5815 5817 5819 5820 5818 5817 5816 5814 5811 5809 5806 5802 5801 5798 5797 5794 5792 5790 5788 5785 5783 5782 5780 5779 5777 5774 5771 5769 5770
5786 5783 5783 5783 5785 5786 5787 5789 5792 5794 5796 5803 5810 5812 5813 5814 5815 5815 5814 5813 5812 5809 5806 5804 5801 5799 5796 5794 5790 5788 5786 5783 5781 5779 5777 5773 5771 5768 5767 5765 5763 5761 5758
5779 5779 5781 5783 5781 5787 5789 5788 5791 5795 5800 5804 5809 5809 5811 5811 5812 5810 5810 5808 5807 5803 5801 5799 5797 5794 5792 5789 5787 5784 5780 5778 5775 5773 5769 5766 5762 5759 5758 5756 5754 5752 5750
5780 5779 5780 5782 5784 5785 5786 5790 5793 5798 5803 5806 5807 5810 5807 5808 5808 5805 5805 5803 5801 5799 5797 5796 5793 5790 5788 5785 5782 5779 5777 5774 5770 5766 5763 5760 5756 5753 5749 5747 5745 5744 5744
5778 5776 5775 5780 5779 5783 5788 5794 5796 5799 5801 5804 5806 5806 5804 5804 5803 5802 5800 5799 5797 5794 5793 5791 5789 5786 5783 5780 5776 5773 5769 5766 5762 5758 5755 5752 5748 5745 5742 5739 5736 5735 5734
5774 5776 5780 5784 5786 5789 5791 5794 5796 5799 5801 5802 5804 5801 5802 5800 5800 5797 5797 5795 5793 5791 5789 5787 5783 5780 5776 5772 5769 5765 5761 5758 5754 5751 5747 5742 5739 5736 5733 5730 5728 5726 5724
5776 5780 5783 5785 5788 5791 5791 5793 5794 5799 5799 5802 5799 5799 5798 5795 5796 5794 5794 5792 5790 5787 5785 5782 5777 5773 5769 5766 5762 5757 5753 5749 5746 5742 5738 5733 5728 5725 5722 5720 5717 5716 5714
5783 5784 5784 5786 5788 5788 5790 5793 5795 5795 5795 5796 5794 5793 5793 5793 5793 5790 5789 5787 5784 5782 5779 5775 5770 5766 5762 5758 5754 5748 5743 5739 5735 5731 5727 5724 5719 5714 5711 5708 5706 5704 5702
5781 5784 5785 5784 5788 5788 5790 5790 5791 5791 5791 5792 5791 5790 5790 5790 5788 5785 5784 5782 5779 5775 5771 5766 5762 5757 5753 5749 5744 5738 5733 5728 5724 5720 5715 5710 5706 5702 5698 5696 5693 5691 5690
5781 5782 5783 5784 5786 5785 5787 5788 5788 5787 5787 5789 5789 5787 5787 5785 5783 5781 5779 5776 5771 5767 5762 5758 5753 5749 5744 5739 5733 5728 5722 5718 5712 5707 5703 5698 5694 5689 5686 5683 5681 5679 5676
5779 5781 5781 5781 5782 5783 5783 5783 5785 5785 5785 5788 5785 5784 5781 5779 5778 5776 5772 5767 5763 5758 5754 5749 5744 5739 5734 5728 5723 5717 5711 5706 5700 5695 5690 5685 5679 5675 5672 5669 5666 5664 5661
5777 5777 5775 5777 5777 5778 5781 5782 5783 5783 5783 5782 5780 5778 5777 5774 5771 5767 5763 5758 5754 5750 5745 5740 5735 5729 5722 5715 5709 5704 5699 5694 5687 5682 5677 5672 5667 5662 5657 5653 5649 5646 5642
5776 5776 5774 5774 5775 5778 5778 5779 5779 5779 5778 5776 5774 5773 5769 5766 5762 5758 5753 5749 5745 5740 5735 5729 5722 5715 5708 5702 5696 5690 5685 5681 5676 5670 5664 5659 5653 5647 5641 5636 5631 5626 5622
5773 5773 5773 5774 5775 5776 5777 5777 5775 5774 5772 5769 5768 5765 5761 5757 5753 5748 5744 5739 5734 5727 5722 5715 5709 5703 5696 5689 5684 5679 5672 5666 5661 5658 5652 5646 5640 5632 5624 5617 5610 5602 5595
5771 5771 5772 5771 5772 5773 5773 5771 5771 5768 5766 5763 5761 5757 5753 5749 5744 5740 5735 5730 5725 5718 5711 5705 5698 5691 5685 5678 5672 5666 5659 5653 5647 5640 5637 5630 5622 5613 5602 5593 5583 5575 5568
5767 5768 5769 5769 5769 5769 5769 5767 5764 5762 5759 5756 5752 5749 5745 5740 5736 5731 5725 5718 5711 5705 5698 5691 5684 5677 5670 5665 5659 5651 5643 5636 5628 5621 5616 5610 5603 5596 5583 5569 5558 5547 5540